(198) Ampella
ephemeris date magn radius delta ra dec elong phase
Today14 Jul 202611.71.956 AU1.255 AU23h11m+08°01'118.6°27.2°
Opposition12 Sep 202610.41.904 AU0.924 AU22h51m+13°38'160.7°10.0°
(198) Ampella - 2026-07-14
astro.vanbuitenen.nl


 
-1 year
-1 month
-1 day
Now
+1 day
+1 month
+1 year

The interactive orbit chart above shows the body's path through the solar system and its position at the given date. Green and blue lines are shown perpendicular to the ecliptic plane: Green if the path is above the ecliptic plane, blue if it is below. (Left-click and drag to rotate the view; Right-click and drag to move the view; Use scroll wheel to zoom in our out.)

The orbital elements of Ampella are:

            e (Eccentricity)                : 0.2271493
            a (Semimajor axis)              : 2.4591408
            i (Inclination)                 : 9.32274
            Ω (Longitude of ascending node) : 268.20101
            ω (Argument of perihelion)      : 89.01909
            M (Mean anomaly)                : 330.95536
            Epoch                           : 2026 Jun 09

            L (Longitude of perihelion)     : 357.20697
            B (Latitude of perihelion)      : 9.32136
            P (Orbital period in years)     : 3.86            
        

The light curve chart below shows the estimated development of the minor planet's magnitude.


The all-sky chart below shows the path of the minor planet over the same period as the light curve. The current position is marked yellow.





The following chart shows the path of the minor planet in the next few days. The field of view is optimized for (~10x50) binoculars and finderscopes.




Ephemerides:
Date       Time       RA (2000)    DEC (2000)    delta   radius  elong  phase   PA    magn
2026-07-14 00:00 UT   23 11 06.7   +08 01 36     1.255    1.956  118.6   27.2   240   11.7 
2026-07-14 13:57 UT   23 11 23.8   +08 08 48     1.249    1.955  119.0   27.1   240   11.7 
2026-07-15 00:00 UT   23 11 35.7   +08 13 58     1.245    1.955  119.3   27.0   239   11.7 
2026-07-16 00:00 UT   23 12 03.1   +08 26 13     1.236    1.953  120.0   26.8   239   11.6 
2026-07-17 00:00 UT   23 12 28.8   +08 38 21     1.226    1.952  120.7   26.6   239   11.6 
2026-07-18 00:00 UT   23 12 52.9   +08 50 21     1.217    1.951  121.5   26.4   238   11.6 
2026-07-19 00:00 UT   23 13 15.3   +09 02 13     1.208    1.949  122.2   26.2   238   11.6 
2026-07-20 00:00 UT   23 13 36.0   +09 13 56     1.199    1.948  122.9   26.0   238   11.6 
2026-07-21 00:00 UT   23 13 55.0   +09 25 31     1.190    1.947  123.7   25.7   237   11.5 
2026-07-22 00:00 UT   23 14 12.3   +09 36 58     1.181    1.946  124.4   25.5   237   11.5 
2026-07-23 00:00 UT   23 14 27.9   +09 48 15     1.173    1.944  125.2   25.3   237   11.5 
2026-07-24 00:00 UT   23 14 41.7   +09 59 22     1.164    1.943  126.0   25.0   236   11.5 
2026-07-25 00:00 UT   23 14 53.7   +10 10 20     1.156    1.942  126.7   24.8   236   11.4 
2026-07-26 00:00 UT   23 15 04.0   +10 21 07     1.147    1.941  127.5   24.5   235   11.4 
2026-07-27 00:00 UT   23 15 12.5   +10 31 44     1.139    1.940  128.3   24.3   235   11.4 
2026-07-28 00:00 UT   23 15 19.1   +10 42 10     1.131    1.938  129.1   24.0   234   11.4 
2026-07-29 00:00 UT   23 15 24.0   +10 52 25     1.123    1.937  129.9   23.7   234   11.3 
2026-07-30 00:00 UT   23 15 27.0   +11 02 28     1.115    1.936  130.7   23.4   233   11.3 
2026-07-31 00:00 UT   23 15 28.2   +11 12 19     1.107    1.935  131.5   23.2   233   11.3 
2026-08-01 00:00 UT   23 15 27.5   +11 21 57     1.100    1.934  132.3   22.9   232   11.3 
2026-08-02 00:00 UT   23 15 25.0   +11 31 23     1.092    1.933  133.1   22.6   232   11.2 
2026-08-03 00:00 UT   23 15 20.7   +11 40 35     1.085    1.932  133.9   22.2   231   11.2 
2026-08-04 00:00 UT   23 15 14.4   +11 49 33     1.078    1.931  134.7   21.9   230   11.2 
2026-08-05 00:00 UT   23 15 06.3   +11 58 17     1.070    1.930  135.5   21.6   230   11.2 
2026-08-06 00:00 UT   23 14 56.4   +12 06 47     1.063    1.929  136.3   21.3   229   11.1 
2026-08-07 00:00 UT   23 14 44.5   +12 15 01     1.057    1.928  137.2   21.0   228   11.1 
2026-08-08 00:00 UT   23 14 30.8   +12 23 00     1.050    1.927  138.0   20.6   228   11.1 
2026-08-09 00:00 UT   23 14 15.3   +12 30 43     1.043    1.926  138.8   20.3   227   11.1 
2026-08-10 00:00 UT   23 13 57.9   +12 38 09     1.037    1.925  139.7   19.9   226   11.0 
2026-08-11 00:00 UT   23 13 38.7   +12 45 19     1.031    1.924  140.5   19.6   225   11.0 
2026-08-12 00:00 UT   23 13 17.7   +12 52 11     1.025    1.923  141.3   19.2   224   11.0 
2026-08-13 00:00 UT   23 12 54.9   +12 58 46     1.019    1.922  142.2   18.9   224   11.0 


    Terminology:
            
    delta:  distance between minor planet and earth in AU
    radius: distance between minor planet and sun in AU
    magn:   magnitude (brightness) estimate    
    ra:     right ascension in hours (24h = 360deg)
    dec:    declination in degrees
    elong:  elongation in degrees (angle sun-earth-minor planet)    
    phase:  phase angle in degrees (angle sun-minor planet-earth)        
    AU:     Astronomical Unit (mean distance between earth and sun: 149597870.7 km
    

Orbital elements provided by the MPC (Minor Planet Center).
Calculations by a modified version of AAPlus, a C# implementation of the AA+ project by PJ Naughter from the algorithms presented in the book "Astronomical Algorithms" by Jean Meeus.
NGC2000 dso catalog and star labels from VizieR as provided by the Strasbourg astronomical Data Center.
Tycho2 catalog from the ESO archive.